This is the latest recevied weather packets stored in our database for station/object SQ3MKP-13. If no packets are shown the sender has not sent any weather packets the latest 10 day(s).
| Time | Temp. | Humidity | Pressure | Rain* | Wind** | Luminosity | Snow |
|---|---|---|---|---|---|---|---|
| 1777734430 | 25.56° C | 28% | 1009.9 hPa | - | - | 272 W/m² | - |
| 1777734129 | 25.56° C | 28% | 1010 hPa | - | - | 284 W/m² | - |
| 1777733828 | 25° C | 28% | 1010 hPa | - | - | 297 W/m² | - |
| 1777733528 | 24.44° C | 29% | 1010 hPa | - | - | 310 W/m² | - |
| 1777733227 | 25° C | 29% | 1010.1 hPa | - | - | 322 W/m² | - |
| 1777732926 | 25° C | 29% | 1010.2 hPa | - | - | 337 W/m² | - |
| 1777732624 | 24.44° C | 31% | 1010.2 hPa | - | - | 350 W/m² | - |
| 1777732324 | 25° C | 30% | 1010.2 hPa | - | - | 360 W/m² | - |
| 1777732023 | 24.44° C | 31% | 1010.3 hPa | - | - | 373 W/m² | - |
| 1777731722 | 25.56° C | 30% | 1010.4 hPa | - | - | 382 W/m² | - |
| 1777731421 | 25° C | 31% | 1010.4 hPa | - | - | 74 W/m² | - |
| 1777731120 | 24.44° C | 32% | 1010.5 hPa | - | - | 75 W/m² | - |
| 1777730519 | 24.44° C | 30% | 1010.6 hPa | - | - | 74 W/m² | - |
| 1777730218 | 25.56° C | 29% | 1010.7 hPa | - | - | 74 W/m² | - |
| 1777729917 | 25.56° C | 29% | 1010.7 hPa | - | - | 76 W/m² | - |
| 1777729616 | 25° C | 30% | 1010.8 hPa | - | - | 269 W/m² | - |
| 1777729315 | 24.44° C | 30% | 1010.8 hPa | - | - | 412 W/m² | - |
| 1777729014 | 25° C | 30% | 1010.9 hPa | - | - | 488 W/m² | - |
| 1777728713 | 24.44° C | 29% | 1010.8 hPa | - | - | 499 W/m² | - |
| 1777728412 | 24.44° C | 30% | 1011 hPa | - | - | 519 W/m² | - |
| 1777728112 | 24.44° C | 30% | 1011.1 hPa | - | - | 530 W/m² | - |
| 1777727811 | 24.44° C | 31% | 1011.1 hPa | - | - | 541 W/m² | - |
| 1777727510 | 24.44° C | 31% | 1011.2 hPa | - | - | 553 W/m² | - |
| 1777727209 | 23.33° C | 32% | 1011.3 hPa | - | - | 566 W/m² | - |
| 1777726907 | 24.44° C | 31% | 1011.5 hPa | - | - | 578 W/m² | - |
* Rain since midnight (hover to see other rain measurements)
** Current wind speed in m/s (hover to see current wind gust speed)